Regional Weather Roundup
Issued by NWS

Home | Current Version | Previous Version | Graphics & Text | Print | Product List | Glossary On
Versions: 1 2 3 4 5 6 7 8 9 10 11 12 13 14 15 16 17 18 19 20 21 22 23 24 25 26 27 28 29 30 31 32 33 34 35 36 37 38 39 40 41 42 43 44 45 46 47 48 49 50
000
ASUS43 KLOT 232304
RWRIL

ILLINOIS REGIONAL WEATHER ROUNDUP
NATIONAL WEATHER SERVICE CHICAGO/ROMEOVILLE IL
600 PM CDT SAT SEP 23 2017

NOTE: "FAIR" INDICATES FEW OR NO CLOUDS BELOW 12,000 FEET WITH NO
SIGNIFICANT WEATHER AND/OR OBSTRUCTIONS TO VISIBILITY.

* THESE STATIONS ARE NOT UNDER NWS QUALITY CONTROL. THEY ALSO MAY NOT
  REPORT WEATHER SUCH AS PRECIPITATION OR FOG.

ILZ001-002-007-009-015-016-024-240000-
NORTHWEST ILLINOIS

CITY           SKY/WX    TMP DP  RH WIND       PRES   REMARKS
MOLINE         CLEAR     87  67  51 SE5       29.99S HX  90
STERLING*      CLEAR     90  64  42 SE3       30.01S HX  91
SAVANNA*       MOCLDY    90  67  46 SE7       30.01R HX  93
$$

ILZ003-004-008-010-011-017-018-240000-
NORTH CENTRAL ILLINOIS

CITY           SKY/WX    TMP DP  RH WIND       PRES   REMARKS
ROCKFORD       PTCLDY    88  62  41 S9        30.03S HX  88
FREEPORT*      CLEAR     87  66  49 CALM      30.04S HX  89
ROCHELLE*      CLEAR     88  64  44 SE5       30.03S HX  89
DE KALB*       CLEAR     88  65  45 SE5       30.05S HX  89
PERU*          CLEAR     90  61  37 SE5       30.02S HX  89
$$

ILZ005-006-012>014-019>023-240000-
NORTHEAST ILLINOIS

CITY           SKY/WX    TMP DP  RH WIND       PRES   REMARKS
CHICAGO-OHARE  PTCLDY    89  64  43 E12       30.03S HX  90
CHICAGO-MIDWAY PTCLDY    89  67  47 E12       30.03S HX  92
AURORA         CLEAR     89  64  43 S5        30.03S HX  90
LANSING*       CLEAR     87  69  56 NE8       30.04S HX  91
JOLIET*        CLEAR     92  63  38 SE6       30.02S HX  92
WAUKEGAN       CLEAR     81  68  64 SE6       30.04S HX  84
DUPAGE AIRPORT CLEAR     89  66  46 S5        30.02F HX  91
KANKAKEE*      CLEAR     88  67  48 CALM      30.04S HX  91
WHEELING       CLEAR     88  67  49 E6        30.05S HX  91
MORRIS*        CLEAR     89  64  43 SE6       30.01S HX  90
ROMEOVILLE*    CLEAR     89  64  43 SE7       30.03S HX  89
NORTHERLY ISL    N/A     82  68  62 NE1         N/A  HX  85
$$

LMZ740>746-240000-
SOUTHERN LAKE MICHIGAN

STATION/POSITION SKY/WX   TEMP    WIND        PRES    VSBY  WAVE
                          AIR SEA DIR/SP/G                  HT/PER
                          (F)     (DEG/KT/KT) (MB)    (MI)  (FT/S)
SOUTHERN BUOY              76 73  170/  2/  2 1017.7          0
WILMETTE HARBOR            76 73   90/  6/  8   N/A           1/ 2
HARRISON CRIB              81      90/ 15/ 15   N/A
BURNHAM HARBOR             82                   N/A
CALUMET HARBOR             79      50/  7/ 10 1016.8R
BURNS HARBOR               77      70/  8/  9 1017.9S
MICHIGAN CITY              77      50/ 13/ 14   N/A
MICHIGAN CITY 6N           75 74   80/  6/  8   N/A           1
ST. JOSEPH                 76 73   60/  6/  8 1017.5F         0
$$

ILZ025>027-034>036-040-047-049-050-058-095>099-240000-
WEST-CENTRAL ILLINOIS

CITY           SKY/WX    TMP DP  RH WIND       PRES   REMARKS
QUINCY         SUNNY     89  60  37 SE8       29.98S HX  89
GALESBURG*     CLEAR     87  64  45 SE3       30.01F HX  88
MACOMB*        SUNNY     89  61  39 SE6       30.02S HX  89
JACKSONVILLE*  CLEAR     89  58  34 SE8       29.99S HX  88
PITTSFIELD*    SUNNY     89  61  38 SE6       30.01R HX  89
$$

ILZ028>032-037-038-041>044-048-051>054-059>061-240000-
CENTRAL ILLINOIS

CITY           SKY/WX    TMP DP  RH WIND       PRES   REMARKS
PONTIAC        PTCLDY    91  62  36 E6        30.03S HX  91
BLOOMINGTON    CLEAR     86  65  49 SE6       30.04S HX  88
DECATUR        CLEAR     89  59  36 SE8       30.01S HX  88
PEORIA         CLEAR     90  62  39 SE6       30.01S HX  90
LACON*         CLEAR     91  64  40 CALM      30.00S HX  92
LINCOLN*       CLEAR     91  62  38 S3        30.01R HX  91
SPRINGFIELD    CLEAR     91  59  33 S6        30.01R HX  90
TAYLORVILLE    CLEAR     89  60  37 SE6       30.01S HX  88
$$

ILZ033-039-045-046-055>057-062-063-240000-
EAST-CENTRAL ILLINOIS

CITY           SKY/WX    TMP DP  RH WIND       PRES   REMARKS
RANTOUL*       CLEAR     89  67  47 E7        30.03S HX  92
MATTOON        CLEAR     89  62  40 E7        30.02R HX  89
PARIS*         CLEAR     90  64  42 SE6       30.04S HX  91
$$

ILZ079-100>102-240000-
SOUTHWEST ILLINOIS

CITY           SKY/WX    TMP DP  RH WIND       PRES   REMARKS
ALTON          CLEAR     88  64  45 SE9       30.00R HX  89
BELLEVILLE     CLEAR     90  62  39 SE7       29.98R HX  90
CAHOKIA*       CLEAR     91  60  35 E6        29.98S HX  90
SPARTA*        CLEAR     86  63  45 CALM      30.00S HX  87
$$

ILZ064>066-069>071-074>076-080>082-084>086-088>090-092>094-240000-
SOUTH-CENTRAL ILLINOIS

CITY           SKY/WX    TMP DP  RH WIND       PRES   REMARKS
CARBONDALE     CLEAR     86  66  51 E6        29.98S HX  88
CAIRO*         CLEAR     85  71  62 CALM      29.97S HX  91
EFFINGHAM*     CLEAR     90  62  38 E5        30.03S HX  90
MARION         PTCLDY    90  63  40 E8        30.00S HX  90
MT. VERNON       N/A     88  62  41 E6        30.01R HX  88
CENTRALIA*     CLEAR     90  61  37 E5        30.00R HX  90
SALEM*         PTCLDY    91  58  32 E5        30.01S HX  89
METROPOLIS*    CLEAR     89  67  49 CALM      29.99S HX  91
$$

ILZ067-068-072-073-078-083-087-091-240000-
SOUTHEAST ILLINOIS

CITY           SKY/WX    TMP DP  RH WIND       PRES   REMARKS
LAWRENCEVILLE  CLEAR     86  67  52 E8        30.02S HX  89
FLORA*         CLEAR     89  60  37 SE9       30.02R HX  89
FAIRFIELD*     CLEAR     88  59  37 SE5       30.01S HX  87
HARRISBURG*    CLEAR     89  61  39 E6        30.01R HX  89
ROBINSON*      CLEAR     87  63  44 SE7       30.03S HX  88
CARMI*         CLEAR     87  60  40 E7        30.01S HX  87
$$

ABBREVIATIONS USED IN REMARKS
   TC - TEMPERATURE IN CELSIUS
  WCI - WIND CHILL INDEX
   HX - HEAT INDEX
  VSB - VISIBILITY
$$





USA.gov is the U.S. government's official web portal to all federal, state and local government web resources and services.